Regional Weather Roundup
Issued by NWS

Home | Current Version | Previous Version | Graphics & Text | Print | Product List | Glossary Off
Versions: 1 2 3 4 5 6 7 8 9 10 11 12 13 14 15 16 17 18 19 20 21 22 23 24 25 26 27 28 29 30 31 32 33 34 35 36 37 38 39 40 41 42 43 44 45 46 47 48 49 50

000
ASUS43 KTOP 260059
RWRKS

WEATHER ROUNDUP FOR KANSAS
NATIONAL WEATHER SERVICE GOODLAND KS
800 PM CDT THU AUG 25 2016

NOTE:  "FAIR" INDICATES FEW OR NO CLOUDS BELOW 12,000 FEET WITH NO
SIGNIFICANT WEATHER AND/OR OBSTRUCTIONS TO VISIBILITY.

KSZ001>006-013>018-027>032-041>047-260200-
NORTHWEST KANSAS

CITY           SKY/WX    TMP DP  RH WIND       PRES   REMARKS
GOODLAND       CLEAR     68  54  60 E10       30.17S
HAYS           CLOUDY    73  54  49 E8        30.11R
HILL CITY      CLOUDY    70  56  61 NE6       30.14R
RUSSELL        CLOUDY    71  60  68 NE6       30.10R
$$

KSZ061>065-074>080-084>089-260200-
SOUTHWEST KANSAS

CITY           SKY/WX    TMP DP  RH WIND       PRES   REMARKS
DODGE CITY     PTCLDY    71  61  70 E6        30.11R
ELKHART          N/A     67  56  68 E7          N/A
GARDEN CITY    CLOUDY    72  59  63 E5        30.12R
GREAT BEND     CLOUDY    73  57  56 NE10      30.08R
LIBERAL        CLOUDY    70  59  68 N9        30.12S
$$

KSZ066>073-081>083-090>101-260200-
SOUTHEAST KANSAS

CITY           SKY/WX    TMP DP  RH WIND       PRES   REMARKS
CHANUTE        MOCLDY    81  73  76 NE3       30.03R
COFFEYVILLE    CLOUDY    76  65  68 SE3       30.03R
HUTCHINSON     PTCLDY    73  66  78 NE3       30.07R
MEDICINE LODGE   N/A     72  66  81 N5        30.06R
NEWTON         CLEAR     72  68  87 NE10      30.07R
PARSONS        CLOUDY    82  71  69 MISG      30.04R
WICHITA INTL   PTCLDY    79  66  64 N8        30.05R
WICHITA JABRA  CLEAR     75  69  81 N6        30.05R
WINFIELD       CLOUDY    83  69  62 NE7       30.03R
$$

KSZ007>012-019>026-033>040-048>060-102>105-260200-
NORTHEAST KANSAS

CITY           SKY/WX    TMP DP  RH WIND       PRES   REMARKS
CONCORDIA      CLEAR     70  59  68 N7        30.10S
EMPORIA        PTCLDY    76  69  79 N7        30.06R
LAWRENCE       CLOUDY    76  70  82 N5        30.06R
MANHATTAN      CLEAR     72  64  76 NE6       30.07R
OLATHE IND     CLOUDY    76  70  82 N10       30.06R
OLATHE EXE     CLOUDY    78  70  76 N8        30.05R
SALINA         PTCLDY    76  64  66 NE10      30.08R
TOPEKA BILLARD PTCLDY    75  68  78 N8        30.07R
TOPEKA FORBES  CLOUDY    77  68  73 N7        30.07R
$$



USA.gov is the U.S. government's official web portal to all federal, state and local government web resources and services.